Regional Weather Roundup
Issued by NWS

Home | Current Version | Previous Version | Text Only | Print | Product List | Glossary On
Versions: 1 2 3 4 5 6 7 8 9 10 11 12 13 14 15 16 17 18 19 20 21 22 23 24 25 26 27
000
ASUS42 KTBW 262116
RWRFL
FLORIDA REGIONAL WEATHER ROUNDUP
NATIONAL WEATHER SERVICE TAMPA BAY RUSKIN FL
500 PM EDT TUE JUL 26 2016

NOTE: "FAIR" INDICATES FEW OR NO CLOUDS BELOW 12,000 FEET WITH NO
SIGNIFICANT WEATHER AND/OR OBSTRUCTIONS TO VISIBILITY.

FLZ001>010-012>015-112-114-115-262200-
PANHANDLE FLORIDA

CITY           SKY/WX    TMP DP  RH WIND       PRES   REMARKS
PENSACOLA      RAIN      81  74  79 SW13G32   29.96F
PENSACOLA NAS  PTSUNNY   87  74  64 S17G25    29.96F HX  95
MILTON NAS     PTSUNNY   87  77  72 S16G23    29.96F HX  99
CRESTVIEW      LGT RAIN  84  74  71 S9G18     29.99S
DUKE FIELD     TSTM      84  75  74 S20       29.97F
VALPARAISO     TSTM      82  75  78 SW20G25   29.99R
MARY ESTHER    PTSUNNY   88  73  59 S15       29.97  HX  95
TRI COUNTY     CLOUDY    78  76  93 S5        30.02S
PANAMA CITY    FAIR      86  75  69 S17       30.00F HX  95
TYNDALL AFB    PTSUNNY   85  75  70 SW13      30.01F
APALACHICOLA   PTSUNNY   86  79  79 SW12      30.03F HX  99

STATION/POSITION SKY/WX   TEMP    WIND        PRES    WAVE   SWELL
                          AIR SEA DIR/SP/G            HT/PER HT/PER
                          (F)     (DEG/KT/KT) (MB)    (FT/S) (FT/S)
30.1N   87.6W              84 88  210/ 19/ 25 1014.5F   6/ 6
29.2N   88.2W              83 87  220/ 19/ 25 1015.0F
28.8N   86.0W              83 87  240/  6/  8 1016.8F   5/ 7   5/ 7
PANAMA CITY BEAC           84 87  210/ 14/ 18 1016.6F
TOWER C                    83     230/ 12/ 14 1017.5F
28.5N   84.5W              86 87  180/ 10/ 12 1017.0F   3/ 8   2/ 8

$$
FLZ011-016>038-118-127-128-134-139-239-262200-
NORTH FLORIDA

CITY           SKY/WX    TMP DP  RH WIND       PRES   REMARKS
MARIANNA       CLOUDY    86  75  69 SW14G21   30.00F HX  95
TALLAHASSEE    PTSUNNY   88  76  67 W9        30.02S HX  99
PERRY          MOSUNNY   91  71  51 SW14G21   30.04S HX  97
LIVE OAK       FAIR      91  75  59 W3        30.05F HX 102
CROSS CITY       N/A     93  70  46 SW13      30.03F HX  99
LAKE CITY      PTSUNNY   86  75  70 NW5       30.04F HX  95
GAINESVILLE    MOSUNNY   93  70  46 SW8       30.02F HX  99
WILLISTON      FAIR      93  73  52 SW9       30.04S HX 102
PALATKA        FAIR      95  72  46 S9        30.02F HX 103
MAYPORT NAS    MOSUNNY   91  74  57 SE15      30.03F HX 100
JACKSONVILLE   PTSUNNY   90  75  61 SE9       30.01S HX 100
JAX NAS        PTSUNNY   95  69  42 S10       30.02F HX 100
JAX CECIL      PTSUNNY   97  72  44 W6        30.01  HX 105
FERNANDINA BEA CLOUDY    91  77  62 SE12      30.02F HX 105
ST AUGUSTINE   MOSUNNY   90  73  57 SE14      30.04F HX  98
PALM COAST     SUNNY     91  73  55 SE12      30.03F HX 100

STATION/POSITION SKY/WX   TEMP    WIND        PRES    WAVE   SWELL
                          AIR SEA DIR/SP/G            HT/PER HT/PER
                          (F)     (DEG/KT/KT) (MB)    (FT/S) (FT/S)
SHELL POINT                88     180/ 12/ 17 1015.9
KEATON BEACH               86     200/ 12/ 14 1016.9F
CEDAR KEY                  87     220/  7/  8 1018.0F
FERNANDINA                 91 87  130/  7/ 11 1017.1F
30.7N   81.3W                 87                N/A     2/ 8
MAYPORT                    88 86  150/ 11/ 15 1017.4F
31.4N   80.9W              85 88  140/ 10/ 12 1016.9F   1/ 8   2/ 8
ST AUGUSTINE               85 88  140/ 14/ 15 1017.7F

$$
FLZ040-043>046-052-053-057-058-063-144-262200-
INTERIOR CENTRAL FLORIDA

CITY           SKY/WX    TMP DP  RH WIND       PRES   REMARKS
OCALA          MOSUNNY   90  72  55 SW5       30.04F HX  96
THE VILLAGES     N/A     95  75  52 MISG      29.92F HX 107
LEESBURG       SUNNY     93  73  52 SE5       30.03F HX 102
SANFORD        SUNNY     95  72  47 SE12      30.02F HX 103
ORLANDO EXEC   PTSUNNY   94  73  50 S9        30.02F HX 103
ORLANDO INTL   MOSUNNY   94  70  45 S7        30.02F HX 100
KISSIMMEE      MOSUNNY   94  70  45 S7        30.03F HX 100
WINTER HAVEN   CLOUDY    94  66  39 CALM      30.04F HX  97
LAKELAND       MOSUNNY   93  70  46 CALM      30.03F HX  99
BARTOW         MOSUNNY   91  66  43 CALM      30.03F
OKEECHOBEE     SUNNY     90  75  62 S3        30.03F HX 100

$$
FLZ041-047-054-059-064-141-147-262200-
EAST CENTRAL FLORIDA

CITY           SKY/WX    TMP DP  RH WIND       PRES   REMARKS
ORMOND BEACH   MOSUNNY   91  75  59 SE12G17   30.03F HX 102
DAYTONA BEACH  MOSUNNY   91  74  57 E12G18    30.03F HX 100
NEW SMYRNA BEA MOSUNNY   88  75  66 E12G20    30.05F HX  97
JFK SPACE CTR  SUNNY     91  74  57 SE9G16    30.03F HX  99
TITUSVILLE     MOSUNNY   90  72  55 SE12      30.04F HX  96
CAPE CANAVERAL SUNNY     90  74  60 SE15      30.02F HX  99
PATRICK AFB    SUNNY     90  76  62 SE16      30.03F HX 101
MELBOURNE      SUNNY     90  75  61 SE16G22   30.03F HX 100
VERO BEACH     SUNNY     89  74  60 E12       30.04F HX  98
FT PIERCE      SUNNY     89  74  60 E14       30.04F HX  98

STATION/POSITION SKY/WX   TEMP    WIND        PRES    WAVE   SWELL
                          AIR SEA DIR/SP/G            HT/PER HT/PER
                          (F)     (DEG/KT/KT) (MB)    (FT/S) (FT/S)
28.5N   80.2W              85 86  150/ 10/ 12 1018.2F
28.9N   78.5W              84 87   50/  2/  4 1018.5F
TRIDENT PIER               89 87  120/  8/ 14 1018.1F
28.4N   80.5W                 86                N/A     2/ 3
27.5N   80.2W                 86                N/A     1/ 7

$$
FLZ050-056-061-142-242-148-248-149-249-151-251-155-255-
160-260-262200-
WEST CENTRAL FLORIDA

CITY           SKY/WX    TMP DP  RH WIND       PRES   REMARKS
CRYSTAL RIVER  LGT RAIN  86  77  74 CALM      30.04S HX  97
INVERNESS      CLOUDY    90  75  62 NW5       30.03S HX 100
BROOKSVILLE    PTSUNNY   90  72  55 SW6       30.03F HX  97
ZEPHYRHILLS    FAIR      92  67  43 SE6       30.03F HX  95
CLEARWATER AIR FAIR      88  73  62 W7        30.02F HX  96
ST PETE CLEARW PTSUNNY   91  74  57 NW9       30.02F HX 100
TAMPA INTL     MOSUNNY   92  74  55 W8        30.02F HX 101
TAMPA EXEC     SUNNY     95  72  46 CALM      30.02F HX 103
PLANT CITY     SUNNY     93  73  52 SE5       30.04F HX 102
MACDILL AFB    PTSUNNY   95  74  50 S1        30.01F HX 105
PETER O KNIGHT SUNNY     97  75  49 CALM      30.01F HX 109
ST PETERSBURG  SUNNY     91  72  53 E3        30.00F HX  98
SARASOTA       SUNNY     93  75  55 SW9       30.00F HX 104
VENICE         NOT AVBL

STATION/POSITION SKY/WX   TEMP    WIND        PRES    WAVE   SWELL
                          AIR SEA DIR/SP/G            HT/PER HT/PER
                          (F)     (DEG/KT/KT) (MB)    (FT/S) (FT/S)
27.3N   84.2W                 86                N/A     3/ 7
CLEARWATER BEACH           84 89  170/  6/ 11 1017.8F
MIDDLE TAMPA BAY                  310/  5/  7 1017.6F
VENICE                     82 89   60/  7/ 11 1016.7R

$$
FLZ066-069-070-075>078-162-262-165-265-262200-
SOUTHWEST FLORIDA AND KEYS

CITY           SKY/WX    TMP DP  RH WIND       PRES   REMARKS
PUNTA GORDA    LGT RAIN  88  77  69 W6        30.02F HX 100
FT MYERS       LGT RAIN  86  77  74 SE10      30.00F HX  97
SOUTHWEST INTL MOSUNNY   89  74  60 NE3       30.01F HX  98
NAPLES         CLOUDY    88  77  69 W8        30.01S THUNDER HX 100
MARCO ISLAND   MOSUNNY  N/A N/A N/A S8        30.02F
MARATHON       MOSUNNY   89  77  67 E8G20     30.01F HX 101
KEY WEST NAS   MOSUNNY   89  75  63 E15       30.00F HX  99
KEY WEST INTL  MOSUNNY   90  77  65 E14       30.00F HX 103

STATION/POSITION SKY/WX   TEMP    WIND        PRES    WAVE   SWELL
                          AIR SEA DIR/SP/G            HT/PER HT/PER
                          (F)     (DEG/KT/KT) (MB)    (FT/S) (FT/S)
NAPLES                        89              1016.3F
26.0N   85.6W              85 86  130/ 12/ 14 1016.7F   3/ 4   2/ 6
DRY TORTUGAS               86     110/ 10/ 12 1016.0F
SAND KEY                   85     110/ 14/ 16 1016.4F
LONG KEY                   85 88  100/ 14/ 16 1017.2F

$$
FLZ067-068-071>074-168-172>174-262200-
SOUTHEAST FLORIDA

CITY           SKY/WX    TMP DP  RH WIND       PRES   REMARKS
W PALM BEACH   MOSUNNY   90  73  57 E13       30.05F HX  98
BOCA RATON     MOSUNNY   88  77  70 E9        30.04F HX 100
FT LAUDER-EXEC MOSUNNY   88  70  55 E13G20    30.03F
FT LAUDERDALE  PTSUNNY   89  74  60 E12       30.03F HX  98
POMPANO BEACH  MOSUNNY   90  75  61 E12       30.04F HX 100
PEMBROKE PINES SUNNY     91  72  53 E10       30.04F HX  98
OPA LOCKA      MOSUNNY   90  73  57 SE15      30.03F HX  98
MIAMI          PTSUNNY   90  72  55 E14       30.03F HX  97
WEST KENDALL   MOSUNNY   88  74  63 E12       30.03F HX  96
HOMESTEAD      MOSUNNY   89  76  64 E12       30.02F HX 100

STATION/POSITION SKY/WX   TEMP    WIND        PRES    WAVE   SWELL
                          AIR SEA DIR/SP/G            HT/PER HT/PER
                          (F)     (DEG/KT/KT) (MB)    (FT/S) (FT/S)
PORT EVERGLADES            89      80/  4/  8 1017.6F
VIRGINIA KEY               86 89   90/  9/ 12 1017.7F
LAKE WORTH                        120/  9/ 10   N/A
FOWEY ROCKS                85 85   90/ 13/ 15 1017.5F
SETTLEMENT POINT           87     160/  9/ 12 1018.2F

$$





USA.gov is the U.S. government's official web portal to all federal, state and local government web resources and services.